[[{"header":{"parameterUnit":"m.s-1","parameterCategory":2,"la1":30.2991,"la2":30.254,"lo1":-89.0895,"lo2":-89.0444,"dy":0.0017,"dx":0.0017,"nx":28,"ny":28,"refTime":"2023-08-14T09:00:00:Z","depth":"0","parameterNumber":2,"parameterNumberName":"U-component_of_CURRENTS"},"data":[0,0,0,0,0,0,0,0,0,0,0,0,0,0,0,0,0,0,0,0,0,0,0,0,0,0,0,0,0,0,0,0,0,0,0,0,0,0,0,0,0,0,0,0,0,0,0,0,0,0,0,0,0,0,0,0,0,0,0.3544,0.3544,0,0.3488,0.3487,0.3486,0.3415,0.3414,0.3413,0.3412,0.3465,0.3467,0.347,0,0,0,0,0,0,0,0,0,0,0,0,0,0.3571,0.3571,0.3544,0.3543,0.3543,0.3488,0.3487,0.3486,0.3415,0.3414,0.3413,0.3412,0.3464,0.3467,0.347,0,0,0,0,0,0,0,0,0,0,0,0,0,0.354,0.3571,0.3544,0.3502,0.3498,0.3488,0.3487,0.3486,0.3416,0.3414,0.3413,0.3411,0.3464,0.3467,0.347,0.3521,0,0,0.3481,0.3482,0,0,0,0,0,0,0,0,0.3542,0.3539,0.3509,0.3505,0.3501,0.3459,0.3516,0.3504,0.3416,0.3445,0.3412,0.3411,0.3476,0.3478,0.3466,0.3523,0.3525,0.3481,0.3483,0.3485,0.3486,0,0,0,0,0,0,0,0.3544,0.3541,0.352,0.3509,0.3504,0.348,0.3474,0.3513,0.347,0.3442,0.3437,0.3435,0.3473,0.3463,0.3467,0.3526,0.3481,0.3484,0.3486,0.3488,0.3696,0.3699,0,0,0,0,0,0,0.3558,0.3543,0.3522,0.3518,0.352,0.3481,0.3474,0.3472,0.3467,0.3464,0.3436,0.3432,0.3458,0.3463,0.3469,0.3533,0.3485,0.3488,0.349,0.3692,0.3696,0.37,0,0,0,0,0,0,0.3558,0.3556,0.3524,0.3531,0.3525,0.3483,0.348,0.3472,0.3462,0.3461,0.346,0.3436,0.3457,0.3464,0.3529,0.3534,0.349,0.3493,0.3688,0.3694,0.3698,0.3659,0,0,0,0,0,0,0.3559,0.3557,0.3564,0.3532,0.3525,0.3536,0.3482,0.3472,0.3463,0.3457,0.3461,0.3463,0.3456,0.3524,0.3533,0.3538,0.3495,0.3684,0.3691,0.3697,0.3656,0.3662,0.3667,0,0,0,0,0,0.3561,0.3586,0.3565,0.3562,0.3535,0.3538,0.3533,0.3496,0.3465,0.3478,0.3488,0.3463,0.3571,0.353,0.3539,0.3545,0.3681,0.3689,0.3696,0.3653,0.3661,0.3667,0,0,0,0,0,0,0.3607,0.358,0.3556,0.3572,0.3561,0.3527,0.3534,0.3507,0.3519,0.3515,0.3506,0.3512,0.3571,0.3591,0.3546,0.3636,0.3624,0.3633,0.3588,0.3596,0.3601,0.3555,0.3498,0,0,0,0,0,0.362,0.3623,0.36,0.361,0.3609,0.3572,0.3567,0.3543,0.3546,0.3545,0.3545,0.3571,0.3613,0.3628,0.367,0.372,0.3721,0.3739,0.3745,0.3749,0.3726,0.3768,0.3773,0.3726,0.3726,0.3725,0,0,0.3639,0.3625,0.3626,0.3619,0.3601,0.3591,0.3565,0.3568,0.3551,0.3558,0.3556,0.3597,0.3639,0.3685,0.3713,0.3696,0.3767,0.3759,0.3761,0.3735,0.3776,0.378,0.3783,0.3731,0.373,0.3729,0,0,0.3668,0.3669,0.3671,0.3662,0.3646,0.3625,0.363,0.3606,0.3593,0.3614,0.3618,0.3664,0.3713,0.3731,0.375,0.3828,0.3805,0.3855,0.3825,0.3867,0.3868,0.387,0.3868,0.387,0.3845,0.3845,0.3845,0,0.3687,0.3674,0.3677,0.3669,0.3646,0.3639,0.3621,0.3622,0.3619,0.3612,0.3618,0.3684,0.3724,0.3763,0.3786,0.3829,0.3839,0.3777,0.3865,0.3867,0.3869,0.3867,0.3869,0.3844,0.3845,0.3845,0.3845,0,0.3702,0.3686,0.3694,0.3662,0.3655,0.3648,0.3636,0.3638,0.3623,0.3609,0.365,0.3707,0.3733,0.3772,0.3794,0.3839,0.3836,0.3868,0.3823,0.387,0.3867,0.387,0.3843,0.3843,0.3844,0.3844,0,0,0.3723,0.3703,0.3697,0.3657,0.3639,0.3624,0.3622,0.3602,0.3581,0.3611,0.3588,0.3678,0.3695,0.3724,0.3771,0.3807,0.3839,0.3837,0.3839,0.3789,0.3898,0.3778,0.3769,0.3882,0.3883,0.3884,0.3883,0,0.3711,0.3686,0.3677,0.3626,0.3596,0.3582,0.3568,0.3557,0.3559,0.3554,0.361,0.3633,0.3683,0.37,0.3746,0.3826,0.3848,0.3834,0.3899,0.39,0.375,0.3769,0.36,0.3574,0.3886,0.3886,0.3886,0,0.3691,0.3671,0.3628,0.3562,0.3548,0.3526,0.3475,0.3469,0.3483,0.3488,0.3518,0.3557,0.3617,0.3663,0.3769,0.3758,0.3817,0.3871,0.3874,0.3767,0.3784,0.3587,0.3568,0.3423,0.3891,0.389,0.389,0,0.365,0.3612,0.3567,0.3547,0.3502,0.3473,0.3454,0.3446,0.3424,0.3452,0.3439,0.3514,0.3545,0.3641,0.374,0.3763,0.3843,0.3893,0.3829,0.382,0.3688,0.3666,0.3491,0.3955,0.3955,0.3955,0.3955,0,0.3603,0.3555,0.3545,0.3512,0.3445,0.3436,0.3374,0.3373,0.3369,0.3339,0.3407,0.34,0.3546,0.3602,0.3708,0.3749,0.3816,0.3801,0.381,0.3672,0.3649,0.3528,0.3477,0.3955,0.3955,0.3955,0.3955,0,0.3535,0.3535,0.3469,0.3435,0.3414,0.3368,0.331,0.3279,0.3291,0.3256,0.326,0.3316,0.3385,0.3497,0.3643,0.3677,0.3639,0.3759,0.3555,0.3539,0.3318,0.3273,0.312,0.3064,0.3672,0.3669,0.3666,0,0.3492,0.3458,0.3409,0.3372,0.3348,0.3289,0.3246,0.3237,0.321,0.3198,0.3181,0.3221,0.3244,0.3365,0.3448,0.3548,0.3507,0.3415,0.3427,0.3242,0.3203,0.319,0.3156,0.3247,0.3241,0.3237,0.3233,0,0.3402,0.3394,0.3355,0.3292,0.3238,0.3171,0.3124,0.3088,0.3081,0.3058,0.304,0.3057,0.3128,0.3129,0.3215,0.3274,0.3208,0.3317,0.3197,0.2886,0.2792,0.2763,0.3293,0.3191,0.3195,0.3198,0.32,0.3202,0.3331,0.3294,0.326,0.3175,0.313,0.3061,0.2966,0.2951,0.2893,0.2805,0.2903,0.2837,0.2839,0.2938,0.2956,0.2804,0.294,0.2731,0.2703,0.2718,0.2603,0.2999,0.2868,0.287,0.2872,0.2873,0.2875,0,0.3212,0.319,0.3138,0.3044,0.2957,0.2958,0.287,0.2759,0.2665,0.2634,0.2603,0.2495,0.2451,0.2433,0.2328,0.2204,0.2242,0.2123,0.2064,0.2078,0.2471,0.2388,0.2057,0.2057,0.2057,0.2057,0.2057,0.2058,0.3153,0.3074,0.3046,0.2881,0.2814,0.2638,0.2556,0.2432,0.2359,0.2157,0.2026,0.2026,0.1976,0.1849,0.166,0.1655,0.1593,0.1522,0.1597,0.1831,0.1887,0.194,0.1848,0.1409,0.1408,0.1173,0.117,0.1168]},{"header":{"parameterUnit":"m.s-1","parameterCategory":2,"la1":30.2991,"la2":30.254,"lo1":-89.0895,"lo2":-89.0444,"dy":0.0017,"dx":0.0017,"nx":28,"ny":28,"refTime":"2023-08-14T09:00:00:Z","depth":"0","parameterNumber":3,"parameterNumberName":"V-component_of_CURRENTS"},"data":[0,0,0,0,0,0,0,0,0,0,0,0,0,0,0,0,0,0,0,0,0,0,0,0,0,0,0,0,0,0,0,0,0,0,0,0,0,0,0,0,0,0,0,0,0,0,0,0,0,0,0,0,0,0,0,0,0,0,-0.0154,-0.0153,0,0.001,0.0012,0.0015,0.0112,0.0112,0.0112,0.0112,0.0333,0.0338,0.0344,0,0,0,0,0,0,0,0,0,0,0,0,0,-0.0239,-0.0238,-0.0154,-0.0153,-0.0151,0.001,0.0012,0.0015,0.0112,0.0112,0.0112,0.0112,0.0331,0.0338,0.0345,0,0,0,0,0,0,0,0,0,0,0,0,0,-0.0146,-0.0238,-0.0154,-0.0087,-0.008,0.0009,0.0013,0.0016,0.0112,0.0112,0.0112,0.0112,0.0328,0.0337,0.0346,0.0403,0,0,0.0373,0.0377,0,0,0,0,0,0,0,0,-0.0152,-0.0143,-0.0099,-0.0092,-0.0084,0.0036,0.0063,0.0146,0.0112,0.0045,0.0112,0.0112,0.0235,0.0252,0.029,0.0413,0.0423,0.0374,0.0379,0.0383,0.0385,0,0,0,0,0,0,0,-0.0158,-0.0148,-0.0084,-0.0097,-0.0088,-0.0016,-0.0004,0.008,0.0144,0.0051,0.0057,0.0067,0.024,0.0281,0.0296,0.0426,0.0373,0.0381,0.0387,0.039,0.0601,0.0601,0,0,0,0,0,0,-0.0197,-0.0155,-0.0089,-0.0079,-0.0125,-0.0016,-0.0001,0.0002,0.0142,0.0161,0.0066,0.007,0.0266,0.0285,0.0304,0.0408,0.0383,0.0391,0.0396,0.06,0.0601,0.0601,0,0,0,0,0,0,-0.02,-0.0193,-0.0096,-0.0117,-0.0101,-0.0016,-0.0011,0.0005,0.0043,0.0152,0.0174,0.0085,0.0266,0.0291,0.0396,0.0416,0.0395,0.0403,0.06,0.06,0.0601,0.0599,0,0,0,0,0,0,-0.0203,-0.0195,-0.0203,-0.012,-0.0101,-0.0045,-0.0011,0.0008,0.0046,0.0053,0.0176,0.0196,0.0268,0.0382,0.0404,0.0428,0.041,0.06,0.06,0.0601,0.0599,0.0599,0.06,0,0,0,0,0,-0.0207,-0.0217,-0.0204,-0.0196,-0.0116,-0.0045,-0.0027,0.0037,0.0047,0.007,0.016,0.0192,0.0399,0.0391,0.0417,0.0443,0.0599,0.06,0.0601,0.0598,0.0599,0.06,0,0,0,0,0,0,-0.0262,-0.0207,-0.019,-0.0186,-0.0124,-0.0031,-0.0012,0.0029,0.0117,0.0122,0.0221,0.025,0.0346,0.0387,0.0374,0.0498,0.0494,0.05,0.0483,0.0485,0.0485,0.0455,0.0418,0,0,0,0,0,-0.0281,-0.027,-0.0204,-0.0198,-0.0178,-0.0098,-0.0065,-0.0019,0.0064,0.0102,0.0192,0.0278,0.0369,0.0419,0.0503,0.0582,0.0577,0.0604,0.0605,0.0605,0.0594,0.0602,0.0602,0.0603,0.0603,0.0603,0,0,-0.03,-0.0271,-0.0263,-0.0208,-0.016,-0.0104,-0.0076,-0.003,0.0033,0.0113,0.0223,0.0293,0.039,0.0487,0.0529,0.0526,0.06,0.0606,0.0606,0.0595,0.0603,0.0603,0.0603,0.0603,0.0603,0.0603,0,0,-0.0317,-0.031,-0.0296,-0.0246,-0.0184,-0.0124,-0.0118,-0.0024,0.0029,0.0135,0.0206,0.028,0.0425,0.0497,0.0552,0.0597,0.0605,0.0615,0.0602,0.061,0.061,0.061,0.0593,0.0591,0.0612,0.0612,0.0612,0,-0.034,-0.031,-0.0279,-0.0242,-0.0195,-0.0138,-0.0088,-0.0022,0.0103,0.015,0.0164,0.0353,0.0429,0.0543,0.0561,0.06,0.0593,0.0599,0.061,0.061,0.061,0.0592,0.059,0.0612,0.0612,0.0612,0.0612,0,-0.0326,-0.0298,-0.0288,-0.0215,-0.0163,-0.0116,-0.0027,0.0034,0.0094,0.0165,0.0274,0.0371,0.0473,0.0506,0.056,0.0605,0.0596,0.0612,0.0607,0.061,0.0591,0.0589,0.0612,0.0612,0.0612,0.0612,0,0,-0.0371,-0.0292,-0.0284,-0.0235,-0.0142,-0.0088,-0.0004,0.0102,0.0159,0.0248,0.0325,0.0454,0.047,0.0528,0.0585,0.0592,0.0588,0.0597,0.0597,0.0575,0.0583,0.0565,0.0561,0.0607,0.0607,0.0607,0.0567,0,-0.0356,-0.0289,-0.0245,-0.0152,-0.0099,-0.0023,0.0059,0.0152,0.023,0.0315,0.0378,0.0471,0.049,0.0533,0.0544,0.0599,0.0584,0.0596,0.0587,0.0586,0.0567,0.056,0.0582,0.0548,0.0565,0.0564,0.0564,0,-0.0338,-0.0288,-0.0211,-0.0099,-0.0072,-0.001,0.012,0.0199,0.0306,0.0357,0.0419,0.0473,0.0531,0.0523,0.0564,0.057,0.0561,0.0573,0.0572,0.0553,0.0565,0.0551,0.0544,0.0501,0.0561,0.0561,0.0561,0,-0.0347,-0.0254,-0.0189,-0.0149,-0.0025,0.0025,0.0094,0.0208,0.0279,0.0369,0.041,0.0479,0.0519,0.0522,0.0551,0.0555,0.0565,0.0577,0.0539,0.0537,0.0552,0.0551,0.0499,0.0556,0.0556,0.0556,0.0556,0,-0.0324,-0.0268,-0.0193,-0.0147,-0.0058,0.0018,0.0114,0.0189,0.0281,0.0361,0.0415,0.0477,0.0517,0.0543,0.0542,0.0537,0.0553,0.0524,0.0527,0.0551,0.055,0.0511,0.0478,0.0555,0.0555,0.0555,0.0556,0,-0.0322,-0.0278,-0.0195,-0.0091,-0.0057,0.0006,0.0123,0.019,0.0262,0.0358,0.0382,0.0474,0.0512,0.0532,0.0549,0.0531,0.0502,0.0509,0.052,0.0525,0.0447,0.0413,0.0323,0.0339,0.0456,0.0456,0.0455,0,-0.0307,-0.0269,-0.017,-0.0122,-0.0072,0.0017,0.0085,0.0177,0.0245,0.0367,0.0412,0.047,0.0542,0.0549,0.0532,0.0506,0.0474,0.0478,0.0487,0.043,0.0395,0.0358,0.0377,0.0502,0.0502,0.0502,0.0502,0,-0.0265,-0.0245,-0.0179,-0.0101,-0.0031,0.0058,0.0149,0.0196,0.0306,0.0378,0.0481,0.0539,0.056,0.0577,0.0528,0.0508,0.045,0.0472,0.0425,0.0424,0.0369,0.0392,0.0519,0.0501,0.0501,0.0501,0.0501,0.0501,-0.0238,-0.0195,-0.0131,-0.0053,0.0017,0.0103,0.0174,0.0258,0.036,0.0484,0.0519,0.0613,0.0612,0.0572,0.0531,0.0438,0.0423,0.0408,0.0369,0.0334,0.0354,0.0457,0.0437,0.0437,0.0437,0.0437,0.0436,0,-0.0188,-0.0145,-0.0078,0.0016,0.0085,0.012,0.023,0.0296,0.0404,0.0507,0.0596,0.0644,0.0621,0.0569,0.0442,0.0355,0.0355,0.0305,0.0273,0.0301,0.0409,0.0418,0.0379,0.0379,0.0379,0.0379,0.0379,0.0379,-0.015,-0.0085,-0.0057,0.0062,0.0122,0.0225,0.0289,0.0367,0.0448,0.0549,0.0609,0.0655,0.0619,0.0386,0.0248,0.0234,0.0197,0.0153,0.014,0.0221,0.0228,0.0235,0.0237,0.0161,0.016,0.008,0.0079,0.0078]}],[{"header":{"parameterUnit":"m.s-1","parameterCategory":2,"la1":30.2991,"la2":30.254,"lo1":-89.0895,"lo2":-89.0444,"dy":0.0017,"dx":0.0017,"nx":28,"ny":28,"refTime":"2023-08-14T09:00:00:Z","depth":"2","parameterNumber":2,"parameterNumberName":"U-component_of_CURRENTS"},"data":[0,0,0,0,0,0,0,0,0,0,0,0,0,0,0,0,0,0,0,0,0,0,0,0,0,0,0,0,0,0,0,0,0,0,0,0,0,0,0,0,0,0,0,0,0,0,0,0,0,0,0,0,0,0,0,0,0,0,0.1018,0.1018,0,0.1119,0.1121,0.1122,0.1203,0.1203,0.1203,0.1203,0.154,0.1548,0.1557,0,0,0,0,0,0,0,0,0,0,0,0,0,0.0995,0.0995,0.1018,0.1018,0.1019,0.1119,0.1121,0.1123,0.1203,0.1203,0.1203,0.1204,0.1537,0.1547,0.1558,0,0,0,0,0,0,0,0,0,0,0,0,0,0.1048,0.0995,0.1017,0.1065,0.107,0.1118,0.1121,0.1123,0.1203,0.1203,0.1203,0.1204,0.1533,0.1546,0.1559,0.1638,0,0,0.16,0.1606,0,0,0,0,0,0,0,0,0.1045,0.105,0.1058,0.1062,0.1067,0.1142,0.1235,0.1305,0.1203,0.1161,0.1203,0.1204,0.1424,0.1446,0.1472,0.1654,0.1668,0.1601,0.1609,0.1615,0.1619,0,0,0,0,0,0,0,0.1041,0.1046,0.1065,0.1058,0.1064,0.1116,0.1123,0.1249,0.13,0.1164,0.1168,0.1168,0.1429,0.1459,0.1481,0.1673,0.1601,0.1612,0.1621,0.1626,0.2116,0.2121,0,0,0,0,0,0,0.1007,0.1042,0.1062,0.1068,0.1048,0.1115,0.1124,0.1124,0.1294,0.1316,0.1167,0.1171,0.1436,0.1465,0.1493,0.1729,0.1615,0.1627,0.1635,0.2111,0.2118,0.2123,0,0,0,0,0,0,0.1007,0.1008,0.1058,0.1051,0.106,0.1113,0.1114,0.1126,0.1213,0.1292,0.132,0.1247,0.1437,0.1475,0.1664,0.1738,0.1633,0.1645,0.2105,0.2113,0.212,0.2117,0,0,0,0,0,0,0.1006,0.1008,0.1038,0.1049,0.1059,0.1135,0.1113,0.1127,0.1204,0.1212,0.137,0.1396,0.144,0.1644,0.1678,0.1754,0.1656,0.2099,0.2109,0.2118,0.2111,0.2124,0.2135,0,0,0,0,0,0.1005,0.1046,0.1039,0.1043,0.1084,0.1137,0.1151,0.1193,0.1208,0.127,0.1375,0.1395,0.1728,0.166,0.1697,0.1779,0.2094,0.2106,0.2117,0.2106,0.2122,0.2135,0,0,0,0,0,0,0.1091,0.1057,0.105,0.109,0.1126,0.1149,0.121,0.1232,0.136,0.1386,0.1464,0.1502,0.1686,0.1756,0.1678,0.1955,0.1915,0.1934,0.1894,0.1909,0.1921,0.186,0.1667,0,0,0,0,0,0.1106,0.1112,0.1108,0.1153,0.1167,0.1199,0.1239,0.1263,0.1345,0.1401,0.1518,0.1645,0.1755,0.1849,0.1962,0.2132,0.2119,0.2214,0.2226,0.2235,0.2217,0.2254,0.2264,0.2161,0.216,0.216,0,0,0.1152,0.1137,0.1146,0.1169,0.1198,0.1239,0.123,0.1302,0.1361,0.1425,0.1605,0.1699,0.181,0.1974,0.2066,0.205,0.2264,0.225,0.2255,0.2232,0.2266,0.2275,0.2283,0.2168,0.2167,0.2166,0,0,0.1225,0.1233,0.1252,0.1277,0.1309,0.1324,0.1355,0.1423,0.1486,0.1643,0.1689,0.1818,0.2045,0.2099,0.2156,0.2317,0.2315,0.2397,0.2421,0.2458,0.2464,0.2469,0.2456,0.2459,0.2413,0.2414,0.2414,0,0.1302,0.1297,0.1284,0.1312,0.1341,0.1365,0.1415,0.1477,0.1616,0.1671,0.1717,0.1979,0.2079,0.2203,0.2262,0.2334,0.2348,0.234,0.2462,0.2467,0.2472,0.2458,0.2462,0.2415,0.2415,0.2415,0.2414,0,0.135,0.1379,0.1408,0.1423,0.1466,0.1525,0.1561,0.1656,0.1736,0.1785,0.1959,0.208,0.2221,0.2289,0.2331,0.244,0.2434,0.245,0.2394,0.248,0.2463,0.2466,0.2417,0.2416,0.2416,0.2415,0,0,0.1459,0.1441,0.1461,0.1467,0.1526,0.1557,0.166,0.1737,0.1789,0.1946,0.2029,0.2217,0.2266,0.2334,0.2407,0.2452,0.2503,0.2486,0.2487,0.2416,0.2563,0.2392,0.238,0.255,0.2551,0.2552,0.2529,0,0.1522,0.1548,0.1542,0.1616,0.1634,0.1675,0.1753,0.1827,0.1913,0.2013,0.2103,0.2231,0.2287,0.2367,0.242,0.2494,0.2518,0.2505,0.2541,0.254,0.233,0.238,0.2164,0.2113,0.2533,0.2533,0.2534,0,0.1572,0.1574,0.1627,0.1653,0.1672,0.1739,0.1826,0.19,0.2,0.2069,0.2174,0.2245,0.2359,0.2385,0.2498,0.2501,0.2534,0.256,0.2561,0.2395,0.2376,0.2106,0.2103,0.254,0.2539,0.2539,0.2538,0,0.1592,0.1641,0.1673,0.169,0.1732,0.1796,0.1852,0.1942,0.1989,0.2112,0.2156,0.228,0.2364,0.2431,0.2516,0.2529,0.2591,0.2607,0.2459,0.2446,0.2259,0.2226,0.2643,0.2643,0.2643,0.2643,0.2643,0,0.1626,0.1666,0.169,0.1707,0.1767,0.1814,0.1896,0.196,0.2043,0.2089,0.2197,0.2246,0.2389,0.2446,0.2502,0.2482,0.2584,0.2441,0.2429,0.2255,0.2224,0.2601,0.2596,0.2642,0.2642,0.2642,0.2642,0,0.1629,0.1651,0.1683,0.1739,0.177,0.182,0.1904,0.1938,0.2036,0.2095,0.214,0.2247,0.233,0.2406,0.2504,0.2444,0.2453,0.2415,0.2171,0.2128,0.2278,0.2275,0.2225,0.2219,0.2214,0.2209,0.2205,0,0.1606,0.1619,0.1684,0.1702,0.1743,0.1815,0.1851,0.1944,0.197,0.2083,0.2095,0.2199,0.2233,0.2261,0.2216,0.2201,0.2352,0.1941,0.1902,0.2241,0.2236,0.2242,0.2246,0.1668,0.166,0.1654,0.1648,0,0.1541,0.1592,0.1608,0.1662,0.1714,0.1743,0.1814,0.1821,0.1921,0.1967,0.2027,0.2064,0.2061,0.193,0.187,0.1839,0.1921,0.1802,0.225,0.179,0.1709,0.1707,0.1731,0.1592,0.1597,0.1601,0.1605,0.1607,0.1489,0.1496,0.1537,0.1599,0.1656,0.1691,0.1699,0.1719,0.1753,0.1774,0.1878,0.1827,0.1743,0.1534,0.1494,0.1436,0.1553,0.1445,0.1469,0.1498,0.1421,0.1333,0.1129,0.1132,0.1135,0.1137,0.1139,0,0.1381,0.1429,0.1459,0.153,0.1578,0.1656,0.1672,0.1633,0.1623,0.1586,0.161,0.1356,0.1223,0.1217,0.1008,0.093,0.099,0.0912,0.0983,0.1033,0.1079,0.0988,0.0578,0.0578,0.0577,0.0577,0,0,0.1309,0.132,0.1362,0.1436,0.1525,0.1555,0.1565,0.1479,0.1406,0.1238,0.1132,0.1162,0.1105,0.0834,0.0756,0.0655,0.0875,0.063,0.1054,0.1185,0.1233,0.1324,0.1229,0,0,0,0,0]},{"header":{"parameterUnit":"m.s-1","parameterCategory":2,"la1":30.2991,"la2":30.254,"lo1":-89.0895,"lo2":-89.0444,"dy":0.0017,"dx":0.0017,"nx":28,"ny":28,"refTime":"2023-08-14T09:00:00:Z","depth":"2","parameterNumber":3,"parameterNumberName":"V-component_of_CURRENTS"},"data":[0,0,0,0,0,0,0,0,0,0,0,0,0,0,0,0,0,0,0,0,0,0,0,0,0,0,0,0,0,0,0,0,0,0,0,0,0,0,0,0,0,0,0,0,0,0,0,0,0,0,0,0,0,0,0,0,0,0,-0.0519,-0.0518,0,-0.0434,-0.0433,-0.0432,-0.0398,-0.0399,-0.0399,-0.04,-0.0287,-0.0284,-0.028,0,0,0,0,0,0,0,0,0,0,0,0,0,-0.0561,-0.056,-0.0519,-0.0518,-0.0517,-0.0434,-0.0433,-0.0431,-0.0398,-0.0399,-0.04,-0.04,-0.0288,-0.0284,-0.028,0,0,0,0,0,0,0,0,0,0,0,0,0,-0.0512,-0.056,-0.0519,-0.0494,-0.0491,-0.0435,-0.0433,-0.0431,-0.0398,-0.0399,-0.04,-0.0401,-0.029,-0.0285,-0.0279,-0.0229,0,0,-0.0263,-0.0261,0,0,0,0,0,0,0,0,-0.0515,-0.051,-0.0498,-0.0495,-0.0492,-0.0431,-0.0407,-0.0363,-0.0398,-0.0429,-0.04,-0.0401,-0.0335,-0.0326,-0.0303,-0.0224,-0.0219,-0.0263,-0.0259,-0.0257,-0.0256,0,0,0,0,0,0,0,-0.0519,-0.0513,-0.0481,-0.0497,-0.0494,-0.0456,-0.045,-0.0398,-0.0374,-0.0426,-0.0425,-0.0421,-0.0332,-0.0308,-0.03,-0.0218,-0.0263,-0.0258,-0.0255,-0.0253,-0.0106,-0.0105,0,0,0,0,0,0,-0.0541,-0.0517,-0.0484,-0.0479,-0.051,-0.0455,-0.0449,-0.0447,-0.0376,-0.0367,-0.0421,-0.042,-0.0317,-0.0306,-0.0296,-0.0214,-0.0257,-0.0252,-0.0249,-0.0107,-0.0106,-0.0105,0,0,0,0,0,0,-0.0542,-0.0539,-0.0487,-0.0499,-0.0491,-0.0455,-0.0452,-0.0445,-0.0433,-0.0372,-0.0363,-0.0419,-0.0317,-0.0303,-0.0249,-0.0211,-0.025,-0.0245,-0.0108,-0.0107,-0.0106,-0.0063,0,0,0,0,0,0,-0.0544,-0.054,-0.0549,-0.0501,-0.0491,-0.0455,-0.0451,-0.0442,-0.043,-0.0429,-0.0367,-0.0356,-0.0316,-0.0257,-0.0243,-0.0204,-0.0241,-0.0109,-0.0107,-0.0106,-0.0065,-0.0061,-0.0057,0,0,0,0,0,-0.0545,-0.0553,-0.055,-0.0546,-0.0504,-0.0455,-0.0445,-0.042,-0.043,-0.0414,-0.0375,-0.0359,-0.0239,-0.0251,-0.0236,-0.0194,-0.0109,-0.0108,-0.0106,-0.0067,-0.0062,-0.0057,0,0,0,0,0,0,-0.0584,-0.0549,-0.0545,-0.0545,-0.0506,-0.0451,-0.0446,-0.0428,-0.0385,-0.039,-0.0341,-0.0326,-0.0262,-0.0244,-0.0259,-0.0153,-0.0175,-0.017,-0.0151,-0.0145,-0.0141,-0.014,-0.0236,0,0,0,0,0,-0.0596,-0.0591,-0.0548,-0.0549,-0.0536,-0.0494,-0.0477,-0.0452,-0.0409,-0.0393,-0.0344,-0.0299,-0.024,-0.021,-0.0158,-0.0097,-0.0105,-0.0066,-0.0062,-0.0058,-0.005,-0.0045,-0.004,-0.01,-0.01,-0.01,0,0,-0.0612,-0.0596,-0.0592,-0.0556,-0.0531,-0.0484,-0.0485,-0.0457,-0.0407,-0.0385,-0.0314,-0.0278,-0.0223,-0.0148,-0.0119,-0.0129,-0.0046,-0.0056,-0.0053,-0.0046,-0.0043,-0.0037,-0.0032,-0.0099,-0.0099,-0.0099,0,0,-0.0625,-0.0627,-0.0617,-0.0579,-0.0541,-0.0498,-0.0495,-0.0435,-0.0403,-0.033,-0.0301,-0.0252,-0.0163,-0.0109,-0.0073,-0.0021,-0.0024,-0.0009,0.0024,0.0029,0.0034,0.0038,0.0031,0.0035,-0.0005,-0.0005,-0.0005,0,-0.0645,-0.0621,-0.0605,-0.0574,-0.0537,-0.0505,-0.046,-0.0413,-0.0336,-0.0298,-0.0306,-0.0175,-0.0138,-0.0039,-0.0018,-0.0006,-0.0015,0.0005,0.0035,0.0039,0.0043,0.0035,0.0038,-0.0003,-0.0003,-0.0003,-0.0003,0,-0.0627,-0.0607,-0.06,-0.054,-0.0497,-0.0458,-0.0387,-0.0338,-0.0301,-0.0247,-0.0158,-0.0106,-0.0032,-0.0011,0.001,0.007,0.0051,0.0038,0.0022,0.0051,0.0041,0.0044,0.0001,-0.0,-0.0001,-0.0001,0,0,-0.0658,-0.0598,-0.0592,-0.0551,-0.0472,-0.0426,-0.0347,-0.0252,-0.0195,-0.0132,-0.0054,0.0034,0.0043,0.0081,0.0107,0.0116,0.0132,0.009,0.0089,0.0084,0.0132,0.0169,0.0175,0.0121,0.0122,0.0123,0.0112,0,-0.0641,-0.058,-0.0546,-0.0461,-0.0412,-0.0349,-0.027,-0.0184,-0.0117,-0.0033,0.0015,0.0094,0.0085,0.0119,0.013,0.0146,0.0142,0.0136,0.0104,0.0103,0.0133,0.0181,0.0123,0.0114,0.0115,0.0115,0.0115,0,-0.0615,-0.0573,-0.05,-0.04,-0.0374,-0.0316,-0.0185,-0.0111,0.0,0.0048,0.0116,0.0154,0.0216,0.0177,0.0204,0.0199,0.0165,0.0154,0.0153,0.0177,0.0146,0.0086,0.0119,0.0119,0.0119,0.0119,0.0118,0,-0.061,-0.0531,-0.047,-0.0434,-0.0321,-0.0273,-0.0207,-0.0091,-0.0014,0.0091,0.0148,0.0215,0.0261,0.0237,0.0233,0.0212,0.0236,0.02,0.0196,0.0196,0.0138,0.0134,0.0184,0.0184,0.0184,0.0184,0.0184,0,-0.0577,-0.053,-0.0468,-0.0425,-0.0335,-0.0268,-0.0162,-0.0086,0.0022,0.0127,0.0177,0.0269,0.0274,0.0302,0.0256,0.0259,0.0251,0.0218,0.0208,0.0152,0.015,0.0144,0.014,0.0184,0.0184,0.0184,0.0184,0,-0.0566,-0.0532,-0.0456,-0.0361,-0.0328,-0.0263,-0.014,-0.0055,0.0027,0.0163,0.0197,0.0315,0.0358,0.0348,0.0332,0.031,0.0286,0.0269,0.0208,0.0194,0.0228,0.0225,0.0269,0.027,0.0272,0.0273,0.0274,0,-0.0549,-0.051,-0.042,-0.0364,-0.0322,-0.023,-0.0148,-0.0054,0.0039,0.0206,0.028,0.0362,0.0459,0.0464,0.0403,0.0341,0.0316,0.0264,0.0225,0.0257,0.0242,0.0237,0.0234,0.0146,0.0146,0.0146,0.0146,0,-0.0494,-0.0478,-0.0415,-0.032,-0.024,-0.0136,-0.0029,0.0038,0.0171,0.0274,0.0431,0.0511,0.0525,0.0479,0.0409,0.0361,0.0278,0.0262,0.0311,0.0154,0.0146,0.013,0.0129,0.0144,0.0144,0.0144,0.0144,0.0144,-0.046,-0.0405,-0.033,-0.0236,-0.015,-0.0027,0.0062,0.0173,0.0314,0.0476,0.053,0.0614,0.054,0.0447,0.0365,0.0269,0.0291,0.023,0.0227,0.0226,0.0235,0.0232,0.0245,0.0246,0.0247,0.0247,0.0248,0,-0.0377,-0.0317,-0.0231,-0.0101,0.0006,0.0027,0.017,0.025,0.0412,0.0506,0.0625,0.0539,0.05,0.0391,0.0228,0.0183,0.0149,0.0164,0.0092,0.0095,0.0097,0.0096,0.0071,0.0071,0.007,0.007,0,0,-0.0315,-0.0213,-0.0164,0.0029,0.0108,0.0244,0.032,0.0398,0.0456,0.0538,0.0554,0.0633,0.0492,0.0339,0.0235,0.013,0.0136,0.0129,0.0273,0.0201,0.0204,0.0136,0.014,0,0,0,0,0]}],[{"header":{"parameterUnit":"m.s-1","parameterCategory":2,"la1":30.2991,"la2":30.254,"lo1":-89.0895,"lo2":-89.0444,"dy":0.0017,"dx":0.0017,"nx":28,"ny":28,"refTime":"2023-08-14T09:00:00:Z","depth":"4","parameterNumber":2,"parameterNumberName":"U-component_of_CURRENTS"},"data":[0,0,0,0,0,0,0,0,0,0,0,0,0,0,0,0,0,0,0,0,0,0,0,0,0,0,0,0,0,0,0,0,0,0,0,0,0,0,0,0,0,0,0,0,0,0,0,0,0,0,0,0,0,0,0,0,0,0,-0.0495,-0.0495,0,-0.0502,-0.0502,-0.0502,-0.0532,-0.0532,-0.0533,-0.0534,-0.0649,-0.0652,-0.0654,0,0,0,0,0,0,0,0,0,0,0,0,0,-0.0462,-0.0463,-0.0495,-0.0495,-0.0495,-0.0502,-0.0502,-0.0502,-0.0531,-0.0532,-0.0533,-0.0534,-0.0649,-0.0651,-0.0654,0,0,0,0,0,0,0,0,0,0,0,0,0,-0.0472,-0.0463,-0.0495,-0.0511,-0.0513,-0.0502,-0.0502,-0.0502,-0.0531,-0.0532,-0.0534,-0.0535,-0.0648,-0.0651,-0.0654,-0.0652,0,0,-0.0665,-0.0667,0,0,0,0,0,0,0,0,-0.0472,-0.0473,-0.0509,-0.051,-0.0512,-0.0518,-0.0533,-0.0558,-0.0531,-0.0523,-0.0534,-0.0535,-0.0616,-0.0622,-0.0617,-0.0657,-0.0662,-0.0665,-0.0668,-0.0669,-0.067,0,0,0,0,0,0,0,-0.0471,-0.0473,-0.0496,-0.0509,-0.0511,-0.0504,-0.0507,-0.0537,-0.0563,-0.0524,-0.0526,-0.0529,-0.0617,-0.0613,-0.062,-0.0664,-0.0665,-0.0668,-0.0671,-0.0672,-0.08,-0.0802,0,0,0,0,0,0,-0.0474,-0.0472,-0.0496,-0.0497,-0.0496,-0.0504,-0.0507,-0.0514,-0.0561,-0.0568,-0.0528,-0.053,-0.0607,-0.0616,-0.0625,-0.0704,-0.0669,-0.0672,-0.0674,-0.0799,-0.0801,-0.0802,0,0,0,0,0,0,-0.0473,-0.0476,-0.0496,-0.0485,-0.0488,-0.0504,-0.0511,-0.0514,-0.0545,-0.0563,-0.0573,-0.056,-0.0608,-0.062,-0.0679,-0.0706,-0.0674,-0.0677,-0.0798,-0.08,-0.0801,-0.0812,0,0,0,0,0,0,-0.0472,-0.0476,-0.0481,-0.0486,-0.0489,-0.05,-0.051,-0.0513,-0.0543,-0.0547,-0.0594,-0.0603,-0.061,-0.0674,-0.0683,-0.071,-0.068,-0.0796,-0.0799,-0.0801,-0.081,-0.0815,-0.0818,0,0,0,0,0,-0.0471,-0.0472,-0.0481,-0.0484,-0.0495,-0.0501,-0.0501,-0.0515,-0.0544,-0.055,-0.0593,-0.0603,-0.0696,-0.0678,-0.0688,-0.0717,-0.0795,-0.0798,-0.0801,-0.0809,-0.0814,-0.0818,0,0,0,0,0,0,-0.0462,-0.0475,-0.0485,-0.0492,-0.0502,-0.0507,-0.0511,-0.0535,-0.0571,-0.0591,-0.062,-0.0632,-0.0701,-0.0706,-0.0686,-0.0762,-0.0748,-0.0753,-0.075,-0.0755,-0.0759,-0.0672,-0.0683,0,0,0,0,0,-0.0462,-0.0468,-0.048,-0.0487,-0.0493,-0.0512,-0.052,-0.0538,-0.0567,-0.0585,-0.0616,-0.066,-0.0713,-0.0733,-0.0772,-0.0806,-0.0795,-0.0833,-0.0837,-0.084,-0.0777,-0.0827,-0.0828,-0.0812,-0.0812,-0.0812,0,0,-0.0464,-0.0469,-0.0475,-0.0486,-0.0495,-0.0501,-0.052,-0.0542,-0.0556,-0.0594,-0.0631,-0.0685,-0.0731,-0.0776,-0.0805,-0.0786,-0.0843,-0.0844,-0.0846,-0.0779,-0.083,-0.0831,-0.0832,-0.0814,-0.0814,-0.0813,0,0,-0.0464,-0.0474,-0.048,-0.0485,-0.0504,-0.051,-0.0528,-0.055,-0.0569,-0.0593,-0.0657,-0.073,-0.0756,-0.0817,-0.0846,-0.0897,-0.0876,-0.0909,-0.084,-0.0893,-0.0893,-0.0893,-0.0889,-0.0889,-0.0894,-0.0894,-0.0894,0,-0.0465,-0.047,-0.0482,-0.0486,-0.0482,-0.0521,-0.0522,-0.0545,-0.0587,-0.0602,-0.06,-0.0705,-0.0772,-0.0856,-0.0854,-0.0907,-0.0886,-0.0823,-0.0895,-0.0895,-0.0894,-0.089,-0.089,-0.0895,-0.0895,-0.0895,-0.0894,0,-0.0465,-0.0472,-0.0474,-0.0486,-0.0486,-0.0495,-0.0518,-0.0538,-0.0555,-0.0575,-0.0643,-0.0718,-0.0749,-0.0823,-0.0831,-0.0887,-0.0857,-0.0911,-0.0875,-0.0896,-0.0892,-0.0891,-0.0896,-0.0896,-0.0895,-0.0895,0,0,-0.0458,-0.047,-0.0472,-0.0469,-0.0483,-0.0483,-0.0501,-0.0518,-0.0536,-0.0571,-0.0586,-0.0688,-0.0697,-0.0728,-0.0803,-0.0846,-0.0861,-0.083,-0.0833,-0.0807,-0.0898,-0.0795,-0.0784,-0.0907,-0.0906,-0.0906,-0.0897,0,-0.0452,-0.0452,-0.0453,-0.045,-0.0449,-0.0461,-0.0462,-0.049,-0.0507,-0.0533,-0.0619,-0.065,-0.0674,-0.0679,-0.0728,-0.0843,-0.0853,-0.0852,-0.0892,-0.0891,-0.0785,-0.078,-0.0906,-0.0896,-0.0896,-0.0896,-0.0896,0,-0.0447,-0.0444,-0.0438,-0.042,-0.0417,-0.0411,-0.0405,-0.0408,-0.0459,-0.0457,-0.0484,-0.053,-0.0591,-0.0612,-0.0721,-0.0698,-0.074,-0.0828,-0.0832,-0.0709,-0.0785,-0.0871,-0.0894,-0.0894,-0.0894,-0.0894,-0.0894,0,-0.0437,-0.0425,-0.0415,-0.0412,-0.0407,-0.0388,-0.0363,-0.0387,-0.0385,-0.0387,-0.0386,-0.045,-0.0486,-0.0545,-0.0669,-0.0658,-0.0806,-0.0846,-0.0795,-0.0789,-0.088,-0.088,-0.0882,-0.0882,-0.0882,-0.0882,-0.0882,0,-0.041,-0.0409,-0.0404,-0.0406,-0.0372,-0.035,-0.0321,-0.0306,-0.0301,-0.0321,-0.0319,-0.0369,-0.0458,-0.0564,-0.0639,-0.0697,-0.077,-0.0732,-0.077,-0.0888,-0.0889,-0.088,-0.0879,-0.0882,-0.0882,-0.0882,-0.0882,0,-0.0403,-0.0404,-0.0417,-0.0402,-0.0379,-0.0349,-0.0275,-0.0268,-0.0228,-0.0252,-0.0228,-0.0299,-0.0361,-0.0481,-0.0633,-0.0659,-0.0752,-0.0765,-0.0843,-0.0896,-0.0685,-0.0686,-0.0624,-0.062,-0.0617,-0.0614,-0.0612,0,-0.04,-0.0402,-0.043,-0.0419,-0.0404,-0.034,-0.031,-0.0238,-0.0246,-0.0248,-0.0296,-0.0312,-0.0362,-0.0468,-0.0594,-0.0656,-0.0687,-0.0697,-0.0671,-0.0609,-0.0655,-0.0661,-0.0667,-0.0606,-0.0605,-0.0605,-0.0604,0,-0.0406,-0.0442,-0.0462,-0.0447,-0.0417,-0.0374,-0.0327,-0.0307,-0.026,-0.0252,-0.0263,-0.0259,-0.0343,-0.0412,-0.0454,-0.0545,-0.0664,-0.0662,-0.0668,-0.0643,-0.0588,-0.0638,-0.0647,-0.0592,-0.0594,-0.0595,-0.0596,0,-0.0438,-0.0464,-0.0506,-0.0471,-0.0441,-0.0406,-0.0364,-0.0328,-0.0286,-0.0261,-0.0301,-0.0321,-0.0356,-0.0363,-0.0462,-0.0455,-0.0424,-0.0423,-0.0441,-0.0454,-0.0409,-0.0315,-0.0225,0,0,0,0,0,-0.0457,-0.0488,-0.0497,-0.0485,-0.0456,-0.0428,-0.0394,-0.0363,-0.0336,-0.0304,-0.0256,-0.0298,-0.0281,-0.0344,-0.0297,-0.0427,-0.0476,-0.0377,-0.0495,-0.0528,-0.0542,-0.0507,0,0,0,0,0,0,-0.0465,-0.0516,-0.0528,-0.0499,-0.0469,-0.0435,-0.0402,-0.0382,-0.0354,-0.0318,-0.0318,-0.0273,-0.0296,-0.0287,-0.0293,-0.0303,-0.0365,-0.0382,-0.038,-0.0521,-0.0533,-0.0544,-0.0513,0,0,0,0,0]},{"header":{"parameterUnit":"m.s-1","parameterCategory":2,"la1":30.2991,"la2":30.254,"lo1":-89.0895,"lo2":-89.0444,"dy":0.0017,"dx":0.0017,"nx":28,"ny":28,"refTime":"2023-08-14T09:00:00:Z","depth":"4","parameterNumber":3,"parameterNumberName":"V-component_of_CURRENTS"},"data":[0,0,0,0,0,0,0,0,0,0,0,0,0,0,0,0,0,0,0,0,0,0,0,0,0,0,0,0,0,0,0,0,0,0,0,0,0,0,0,0,0,0,0,0,0,0,0,0,0,0,0,0,0,0,0,0,0,0,0.0457,0.0457,0,0.0425,0.0425,0.0424,0.043,0.0431,0.0432,0.0432,0.0457,0.0457,0.0457,0,0,0,0,0,0,0,0,0,0,0,0,0,0.0462,0.0462,0.0457,0.0457,0.0457,0.0425,0.0425,0.0424,0.043,0.0431,0.0432,0.0433,0.0457,0.0457,0.0457,0,0,0,0,0,0,0,0,0,0,0,0,0,0.0447,0.0462,0.0457,0.0457,0.0456,0.0425,0.0425,0.0424,0.043,0.0431,0.0432,0.0433,0.0457,0.0457,0.0457,0.0436,0,0,0.0457,0.0457,0,0,0,0,0,0,0,0,0.0448,0.0446,0.0457,0.0457,0.0456,0.0434,0.0435,0.0431,0.043,0.0439,0.0432,0.0433,0.0454,0.0455,0.0444,0.0438,0.0439,0.0457,0.0457,0.0457,0.0457,0,0,0,0,0,0,0,0.0449,0.0447,0.0443,0.0457,0.0456,0.0437,0.0436,0.0434,0.0441,0.0438,0.0439,0.0437,0.0455,0.0444,0.0445,0.0439,0.0457,0.0457,0.0457,0.0457,0.0505,0.0507,0,0,0,0,0,0,0.0457,0.0449,0.0444,0.0443,0.0456,0.0436,0.0436,0.0439,0.044,0.0441,0.0436,0.0437,0.0443,0.0445,0.0446,0.0475,0.0457,0.0457,0.0457,0.0504,0.0506,0.0507,0,0,0,0,0,0,0.0457,0.0457,0.0446,0.0445,0.0443,0.0436,0.0439,0.0438,0.0472,0.0438,0.044,0.0477,0.0444,0.0446,0.0464,0.0474,0.0457,0.0457,0.0503,0.0505,0.0506,0.05,0,0,0,0,0,0,0.0458,0.0458,0.0466,0.0446,0.0443,0.0436,0.0438,0.0437,0.0467,0.047,0.0473,0.0473,0.0445,0.0464,0.0464,0.0474,0.0457,0.0501,0.0504,0.0506,0.0499,0.0502,0.0504,0,0,0,0,0,0.0458,0.0452,0.0467,0.0466,0.0454,0.0436,0.0433,0.043,0.0469,0.047,0.0481,0.0476,0.048,0.0464,0.0464,0.0475,0.05,0.0503,0.0506,0.0498,0.0501,0.0504,0,0,0,0,0,0,0.0456,0.0452,0.0467,0.0462,0.046,0.0438,0.0438,0.0461,0.0472,0.0505,0.0482,0.0481,0.0508,0.05,0.0484,0.0501,0.0493,0.0496,0.0488,0.0491,0.0493,0.0452,0.0457,0,0,0,0,0,0.0463,0.0463,0.0458,0.0459,0.0462,0.047,0.0471,0.0492,0.0495,0.0505,0.0512,0.0523,0.0511,0.051,0.0512,0.0513,0.0512,0.0527,0.0529,0.0531,0.0501,0.0519,0.052,0.0517,0.0516,0.0516,0,0,0.047,0.0462,0.0468,0.046,0.0463,0.0477,0.0473,0.0502,0.0516,0.0507,0.0542,0.0545,0.052,0.0517,0.0528,0.0513,0.0539,0.0535,0.0536,0.0504,0.0522,0.0522,0.0522,0.0518,0.0518,0.0518,0,0,0.0479,0.0476,0.0489,0.0494,0.0516,0.0509,0.0535,0.0557,0.0561,0.0582,0.0586,0.0599,0.0589,0.0564,0.0545,0.0572,0.0564,0.0587,0.0545,0.0565,0.0564,0.0564,0.0584,0.0585,0.0572,0.0572,0.0572,0,0.0489,0.0514,0.0489,0.051,0.0516,0.0537,0.0566,0.0561,0.0594,0.0577,0.06,0.059,0.06,0.0554,0.0552,0.0575,0.0576,0.0528,0.0565,0.0564,0.0564,0.0584,0.0585,0.0572,0.0572,0.0572,0.0572,0,0.0513,0.0552,0.0558,0.0587,0.0576,0.0614,0.0602,0.061,0.0629,0.0619,0.0607,0.0604,0.0578,0.0598,0.0567,0.056,0.0562,0.0578,0.0548,0.0563,0.0585,0.0586,0.0572,0.0572,0.0572,0.0572,0,0,0.0506,0.0567,0.0584,0.0604,0.0636,0.0619,0.0621,0.0592,0.0573,0.0598,0.0552,0.0548,0.0546,0.0526,0.0521,0.0523,0.0543,0.0529,0.053,0.0531,0.0575,0.0477,0.047,0.0555,0.0555,0.0555,0.06,0,0.055,0.0614,0.0619,0.0666,0.0691,0.0673,0.0644,0.0619,0.0588,0.0547,0.0525,0.0508,0.0516,0.0509,0.0506,0.0517,0.0541,0.0529,0.0574,0.0575,0.0471,0.0465,0.0554,0.06,0.0601,0.0601,0.0601,0,0.0584,0.0619,0.0692,0.0687,0.0687,0.0703,0.0625,0.0609,0.0535,0.0508,0.0468,0.0449,0.0421,0.0461,0.0469,0.0451,0.0511,0.054,0.0543,0.0441,0.0476,0.058,0.0603,0.0603,0.0603,0.0603,0.0603,0,0.0582,0.0652,0.0707,0.0725,0.0728,0.0713,0.0687,0.0612,0.0565,0.0499,0.0466,0.0417,0.0412,0.0437,0.0465,0.0471,0.049,0.0526,0.0507,0.0503,0.0582,0.0582,0.0584,0.0584,0.0584,0.0584,0.0583,0,0.059,0.0633,0.0722,0.0753,0.0741,0.0729,0.0683,0.0632,0.057,0.0497,0.0465,0.0386,0.0408,0.0397,0.0441,0.0437,0.0485,0.0476,0.0493,0.0584,0.0584,0.0584,0.0583,0.0585,0.0585,0.0585,0.0584,0,0.0551,0.0639,0.0706,0.076,0.0758,0.0743,0.0692,0.0634,0.0602,0.0507,0.0493,0.0384,0.0321,0.0351,0.039,0.0412,0.0435,0.046,0.0537,0.0563,0.0448,0.0447,0.0411,0.0408,0.0405,0.0402,0.04,0,0.0537,0.0582,0.0715,0.0731,0.0758,0.0741,0.07,0.0656,0.0592,0.047,0.0407,0.0331,0.0258,0.0218,0.0253,0.032,0.0357,0.0411,0.0425,0.0402,0.0424,0.0427,0.043,0.0396,0.0395,0.0394,0.0394,0,0.0485,0.0577,0.0624,0.0699,0.0704,0.0657,0.0611,0.0549,0.0467,0.0479,0.0305,0.0244,0.016,0.0122,0.0194,0.0247,0.0368,0.0381,0.0388,0.0402,0.0383,0.0408,0.0415,0.0384,0.0385,0.0386,0.0386,0,0.0451,0.0483,0.06,0.0627,0.0634,0.0554,0.0517,0.0426,0.0365,0.0271,0.02,0.0117,0.0103,0.0082,0.0117,0.0159,0.0179,0.0249,0.0264,0.0276,0.0208,0.0162,0.0085,0,0,0,0,0,0.0427,0.0461,0.0493,0.0529,0.0531,0.0547,0.0443,0.0401,0.0344,0.0225,0.022,0.0131,0.008,0.0028,0.0048,0.0059,0.0189,0.0086,0.0279,0.0328,0.0339,0.0271,0,0,0,0,0,0,0.0395,0.0456,0.0492,0.0457,0.0467,0.0428,0.0363,0.0302,0.0226,0.0193,0.0147,0.0203,0.0139,0.0113,0.0083,0.0086,0.0219,0.0094,0.0095,0.0321,0.0332,0.0341,0.0275,0,0,0,0,0]}]]